| time (UTC) | temp C | wind direction | speed KPH | gust KPH | rain 1hr cm | rain 24hr cm | rain mn cm | humidity % | barometer mb |
| 20260904165032 | 13 | 0 | 0.0 | 0.0 | 0.00 | 0.20 | 0.20 | 79 | 997.6 |
| 20260904164559 | 14 | 0 | 0.0 | 0.0 | 0.00 | 0.20 | 0.20 | 78 | 997.6 |
| 20260904164037 | 14 | 0 | 0.0 | 0.0 | 0.00 | 0.20 | 0.20 | 77 | 997.7 |
| 20260904163531 | 14 | 0 | 0.0 | 0.0 | 0.00 | 0.20 | 0.20 | 75 | 997.7 |
| 20260904163051 | 14 | 126 | 0.0 | 0.0 | 0.00 | 0.20 | 0.20 | 75 | 997.7 |
| 20260904162534 | 14 | 0 | 0.0 | 0.0 | 0.00 | 0.20 | 0.20 | 74 | 997.8 |
| 20260904162034 | 14 | 0 | 0.0 | 0.0 | 0.00 | 0.20 | 0.20 | 74 | 997.8 |
| 20260904161548 | 14 | 0 | 0.0 | 0.0 | 0.00 | 0.20 | 0.20 | 73 | 997.7 |
| 20260904161032 | 14 | 0 | 0.0 | 0.0 | 0.00 | 0.20 | 0.20 | 72 | 997.7 |
| 20260904160532 | 15 | 0 | 0.0 | 1.6 | 0.00 | 0.20 | 0.20 | 71 | 997.7 |
| 20260904160047 | 15 | 0 | 0.0 | 1.6 | 0.00 | 0.20 | 0.20 | 72 | 997.7 |
| 20260904155533 | 15 | 0 | 0.0 | 1.6 | 0.00 | 0.20 | 0.20 | 72 | 997.8 |
| 20260904155031 | 15 | 0 | 0.0 | 4.8 | 0.00 | 0.20 | 0.20 | 73 | 997.7 |
| 20260904154545 | 15 | 0 | 0.0 | 4.8 | 0.00 | 0.20 | 0.20 | 72 | 997.7 |
| 20260904154031 | 15 | 120 | 1.6 | 4.8 | 0.00 | 0.20 | 0.20 | 71 | 997.7 |
| 20260904153531 | 16 | 0 | 0.0 | 4.8 | 0.00 | 0.20 | 0.20 | 71 | 997.7 |
| 20260904153053 | 16 | 91 | 1.6 | 4.8 | 0.00 | 0.20 | 0.20 | 71 | 997.8 |
| 20260904152531 | 16 | 164 | 1.6 | 4.8 | 0.00 | 0.20 | 0.20 | 73 | 997.8 |
| 20260904152035 | 15 | 219 | 1.6 | 4.8 | 0.00 | 0.20 | 0.20 | 73 | 997.9 |
| 20260904151552 | 15 | 211 | 1.6 | 6.4 | 0.00 | 0.20 | 0.20 | 76 | 997.8 |
| 20260904151033 | 15 | 195 | 3.2 | 8.0 | 0.00 | 0.20 | 0.20 | 75 | 997.9 |
| 20260904150534 | 15 | 207 | 3.2 | 8.0 | 0.00 | 0.20 | 0.20 | 75 | 997.9 |
| 20260904150054 | 15 | 167 | 4.8 | 8.0 | 0.00 | 0.20 | 0.20 | 76 | 997.8 |
| 20260904145532 | 15 | 197 | 1.6 | 4.8 | 0.00 | 0.20 | 0.20 | 76 | 998.0 |
| 20260904145035 | 15 | 117 | 0.0 | 3.2 | 0.00 | 0.20 | 0.20 | 76 | 997.9 |
| 20260904144554 | 15 | 137 | 0.0 | 4.8 | 0.00 | 0.20 | 0.20 | 75 | 997.9 |
| 20260904144033 | 15 | 198 | 0.0 | 6.4 | 0.00 | 0.20 | 0.20 | 76 | 997.8 |
| 20260904143534 | 15 | 129 | 3.2 | 6.4 | 0.00 | 0.20 | 0.20 | 76 | 997.9 |
| 20260904143052 | 15 | 113 | 3.2 | 4.8 | 0.00 | 0.20 | 0.20 | 74 | 997.9 |
| 20260904142538 | 15 | 0 | 3.2 | 4.8 | 0.00 | 0.20 | 0.20 | 75 | 997.9 |
| 20260904142034 | 15 | 124 | 1.6 | 3.2 | 0.00 | 0.20 | 0.20 | 74 | 997.9 |
| 20260904141622 | 15 | 77 | 0.0 | 3.2 | 0.00 | 0.20 | 0.20 | 74 | 997.9 |
| 20260904141031 | 15 | 224 | 0.0 | 4.8 | 0.00 | 0.20 | 0.20 | 75 | 997.9 |
| 20260904140531 | 15 | 103 | 0.0 | 8.0 | 0.00 | 0.20 | 0.20 | 75 | 997.9 |
| 20260904140106 | 15 | 105 | 3.2 | 8.0 | 0.00 | 0.20 | 0.20 | 74 | 997.9 |
| 20260904135532 | 15 | 129 | 1.6 | 4.8 | 0.00 | 0.20 | 0.20 | 73 | 997.8 |
| 20260904135035 | 16 | 154 | 0.0 | 8.0 | 0.00 | 0.20 | 0.20 | 72 | 998.0 |
| 20260904134558 | 17 | 150 | 1.6 | 8.0 | 0.00 | 0.20 | 0.20 | 73 | 997.9 |
| 20260904134032 | 16 | 95 | 3.2 | 6.4 | 0.00 | 0.20 | 0.20 | 72 | 998.0 |
| 20260904133534 | 16 | 95 | 1.6 | 4.8 | 0.00 | 0.20 | 0.20 | 75 | 998.1 |
| 20260904133106 | 15 | 136 | 1.6 | 11.3 | 0.00 | 0.20 | 0.20 | 77 | 998.1 |
| 20260904132535 | 15 | 111 | 3.2 | 11.3 | 0.00 | 0.20 | 0.20 | 77 | 998.1 |
| 20260904132032 | 15 | 100 | 3.2 | 11.3 | 0.00 | 0.20 | 0.20 | 78 | 998.2 |
| 20260904131555 | 15 | 136 | 0.0 | 6.4 | 0.00 | 0.20 | 0.20 | 77 | 998.3 |
| 20260904131031 | 15 | 101 | 0.0 | 6.4 | 0.00 | 0.20 | 0.20 | 77 | 998.3 |
| 20260904130531 | 15 | 107 | 3.2 | 6.4 | 0.00 | 0.20 | 0.20 | 79 | 998.4 |
| 20260904130054 | 15 | 129 | 0.0 | 8.0 | 0.00 | 0.20 | 0.20 | 77 | 998.5 |
| 20260904125533 | 15 | 0 | 0.0 | 8.0 | 0.00 | 0.20 | 0.20 | 77 | 998.5 |
| 20260904125037 | 15 | 217 | 3.2 | 6.4 | 0.00 | 0.20 | 0.20 | 77 | 998.6 |
| 20260904124549 | 15 | 0 | 1.6 | 3.2 | 0.00 | 0.20 | 0.20 | 78 | 998.6 |
| 20260904124034 | 15 | 0 | 0.0 | 4.8 | 0.00 | 0.20 | 0.20 | 79 | 998.7 |
| 20260904123535 | 14 | 150 | 3.2 | 4.8 | 0.00 | 0.20 | 0.20 | 79 | 998.7 |
| 20260904123047 | 14 | 143 | 0.0 | 6.4 | 0.00 | 0.20 | 0.20 | 79 | 998.7 |
| 20260904122533 | 14 | 0 | 1.6 | 6.4 | 0.00 | 0.20 | 0.20 | 77 | 998.8 |
| 20260904122031 | 14 | 108 | 1.6 | 4.8 | 0.00 | 0.20 | 0.20 | 77 | 998.7 |
| 20260904121556 | 14 | 123 | 1.6 | 4.8 | 0.00 | 0.20 | 0.20 | 78 | 998.6 |
| 20260904121031 | 14 | 288 | 0.0 | 1.6 | 0.00 | 0.20 | 0.20 | 79 | 998.7 |
| 20260904120545 | 14 | 184 | 0.0 | 3.2 | 0.00 | 0.20 | 0.20 | 80 | 998.7 |
| 20260904120047 | 14 | 148 | 0.0 | 3.2 | 0.00 | 0.20 | 0.20 | 80 | 998.8 |
| 20260904115534 | 13 | 121 | 1.6 | 3.2 | 0.00 | 0.20 | 0.20 | 81 | 998.9 |
| 20260904115031 | 13 | 129 | 0.0 | 1.6 | 0.00 | 0.20 | 0.20 | 81 | 998.9 |
| 20260904114549 | 13 | 110 | 0.0 | 3.2 | 0.00 | 0.20 | 0.20 | 81 | 999.0 |
| 20260904114034 | 13 | 0 | 1.6 | 3.2 | 0.00 | 0.20 | 0.20 | 81 | 999.0 |
| 20260904113532 | 13 | 136 | 0.0 | 3.2 | 0.00 | 0.20 | 0.20 | 81 | 999.0 |
| 20260904113046 | 13 | 293 | 0.0 | 3.2 | 0.00 | 0.20 | 0.20 | 81 | 999.0 |
| 20260904112531 | 13 | 0 | 0.0 | 1.6 | 0.00 | 0.20 | 0.20 | 82 | 999.1 |
| 20260904112035 | 13 | 0 | 0.0 | 3.2 | 0.00 | 0.20 | 0.20 | 82 | 999.0 |
| 20260904111548 | 13 | 0 | 1.6 | 3.2 | 0.00 | 0.20 | 0.20 | 82 | 999.0 |
| 20260904111031 | 13 | 345 | 0.0 | 4.8 | 0.00 | 0.20 | 0.20 | 82 | 998.9 |
| 20260904110534 | 13 | 340 | 1.6 | 6.4 | 0.00 | 0.20 | 0.20 | 81 | 999.1 |
| 20260904110052 | 13 | 343 | 1.6 | 6.4 | 0.00 | 0.20 | 0.20 | 80 | 999.0 |
| 20260904105532 | 13 | 0 | 3.2 | 8.0 | 0.00 | 0.20 | 0.20 | 81 | 999.0 |
| 20260904105031 | 13 | 331 | 3.2 | 8.0 | 0.00 | 0.20 | 0.20 | 81 | 999.1 |
| 20260904104551 | 13 | 23 | 1.6 | 8.0 | 0.00 | 0.20 | 0.20 | 80 | 999.1 |
| 20260904104030 | 13 | 335 | 1.6 | 6.4 | 0.00 | 0.20 | 0.20 | 81 | 999.1 |
| 20260904103530 | 13 | 327 | 3.2 | 9.7 | 0.00 | 0.20 | 0.20 | 82 | 999.2 |
| 20260904103051 | 13 | 309 | 6.4 | 9.7 | 0.00 | 0.20 | 0.20 | 82 | 999.2 |
| 20260904102532 | 13 | 342 | 3.2 | 9.7 | 0.00 | 0.20 | 0.20 | 82 | 999.2 |
| 20260904102032 | 13 | 350 | 4.8 | 9.7 | 0.00 | 0.20 | 0.20 | 83 | 999.2 |
| 20260904101546 | 13 | 336 | 6.4 | 9.7 | 0.00 | 0.20 | 0.20 | 82 | 999.2 |
| 20260904101032 | 13 | 301 | 4.8 | 9.7 | 0.00 | 0.20 | 0.20 | 83 | 999.3 |
| 20260904100531 | 13 | 352 | 4.8 | 9.7 | 0.00 | 0.20 | 0.20 | 81 | 999.2 |
| 20260904100054 | 13 | 335 | 1.6 | 8.0 | 0.00 | 0.20 | 0.20 | 85 | 999.3 |
| 20260904095532 | 13 | 262 | 3.2 | 12.9 | 0.00 | 0.20 | 0.20 | 87 | 999.4 |
| 20260904095031 | 12 | 68 | 4.8 | 12.9 | 0.00 | 0.20 | 0.20 | 87 | 999.4 |
| 20260904094549 | 12 | 39 | 4.8 | 9.7 | 0.00 | 0.20 | 0.20 | 87 | 999.5 |
| 20260904094034 | 12 | 340 | 4.8 | 9.7 | 0.00 | 0.20 | 0.20 | 89 | 999.5 |
| 20260904093534 | 12 | 2 | 6.4 | 9.7 | 0.00 | 0.20 | 0.20 | 90 | 999.6 |
| 20260904093051 | 12 | 319 | 6.4 | 12.9 | 0.00 | 0.20 | 0.20 | 91 | 999.8 |
| 20260904092531 | 11 | 349 | 6.4 | 12.9 | 0.00 | 0.20 | 0.20 | 91 | 999.7 |
| 20260904092031 | 11 | 338 | 6.4 | 12.9 | 0.00 | 0.20 | 0.20 | 91 | 999.8 |
| 20260904091544 | 11 | 304 | 6.4 | 12.9 | 0.00 | 0.20 | 0.20 | 92 | 999.9 |
| 20260904091035 | 11 | 337 | 9.7 | 12.9 | 0.00 | 0.20 | 0.20 | 92 | 1000.0 |
| 20260904090535 | 11 | 334 | 6.4 | 11.3 | 0.00 | 0.20 | 0.20 | 92 | 999.8 |
| 20260904090053 | 11 | 335 | 8.0 | 16.1 | 0.00 | 0.20 | 0.20 | 92 | 999.8 |
| 20260904085531 | 11 | 342 | 9.7 | 16.1 | 0.00 | 0.20 | 0.20 | 92 | 1000.0 |
| 20260904085034 | 11 | 347 | 6.4 | 14.5 | 0.00 | 0.20 | 0.20 | 92 | 1000.0 |
| 20260904084548 | 11 | 323 | 6.4 | 14.5 | 0.00 | 0.20 | 0.20 | 92 | 999.8 |
| 20260904084030 | 11 | 354 | 9.7 | 14.5 | 0.00 | 0.20 | 0.20 | 92 | 999.8 |
| 20260904083532 | 11 | 310 | 6.4 | 14.5 | 0.00 | 0.20 | 0.20 | 92 | 999.9 |
| 20260904083053 | 11 | 347 | 8.0 | 14.5 | 0.00 | 0.20 | 0.20 | 92 | 999.7 |
| 20260904082533 | 11 | 327 | 6.4 | 16.1 | 0.00 | 0.20 | 0.20 | 91 | 999.7 |
| 20260904082032 | 11 | 328 | 6.4 | 16.1 | 0.00 | 0.20 | 0.20 | 91 | 999.7 |
| 20260904081551 | 11 | 341 | 9.7 | 16.1 | 0.00 | 0.20 | 0.20 | 91 | 999.7 |
| 20260904081033 | 11 | 329 | 6.4 | 9.7 | 0.00 | 0.20 | 0.20 | 91 | 999.7 |
| 20260904080533 | 11 | 359 | 4.8 | 12.9 | 0.00 | 0.20 | 0.20 | 91 | 999.7 |
| 20260904080053 | 11 | 349 | 6.4 | 12.9 | 0.00 | 0.20 | 0.20 | 91 | 999.8 |
| 20260904075534 | 11 | 323 | 6.4 | 12.9 | 0.00 | 0.20 | 0.20 | 91 | 999.7 |
| 20260904075032 | 11 | 20 | 6.4 | 11.3 | 0.00 | 0.20 | 0.20 | 91 | 999.8 |
| 20260904074546 | 11 | 316 | 4.8 | 11.3 | 0.00 | 0.20 | 0.20 | 92 | 999.8 |
| 20260904074033 | 11 | 358 | 4.8 | 9.7 | 0.00 | 0.20 | 0.20 | 92 | 999.8 |
| 20260904073533 | 11 | 4 | 6.4 | 11.3 | 0.00 | 0.20 | 0.20 | 92 | 999.8 |
| 20260904073056 | 11 | 328 | 6.4 | 11.3 | 0.00 | 0.20 | 0.20 | 92 | 999.8 |
| 20260904072534 | 11 | 38 | 6.4 | 11.3 | 0.00 | 0.20 | 0.20 | 92 | 999.9 |
| 20260904072033 | 11 | 16 | 3.2 | 8.0 | 0.00 | 0.20 | 0.20 | 92 | 1000.0 |
| 20260904071552 | 11 | 327 | 4.8 | 11.3 | 0.00 | 0.20 | 0.20 | 92 | 999.8 |
| 20260904071037 | 11 | 308 | 4.8 | 12.9 | 0.00 | 0.20 | 0.20 | 92 | 999.8 |
| 20260904070533 | 11 | 357 | 4.8 | 12.9 | 0.00 | 0.20 | 0.20 | 93 | 1000.0 |
| 20260904070049 | 10 | 328 | 6.4 | 12.9 | 0.00 | 0.20 | 0.20 | 93 | 1000.0 |
| 20260904065533 | 10 | 339 | 6.4 | 12.9 | 0.00 | 0.20 | 0.20 | 93 | 1000.0 |
| 20260904065032 | 10 | 338 | 6.4 | 9.7 | 0.00 | 0.20 | 0.20 | 93 | 1000.1 |
| 20260904064557 | 10 | 345 | 4.8 | 9.7 | 0.00 | 0.20 | 0.20 | 93 | 1000.1 |
| 20260904064033 | 10 | 326 | 6.4 | 11.3 | 0.00 | 0.20 | 0.20 | 93 | 1000.2 |
| 20260904063533 | 10 | 339 | 6.4 | 11.3 | 0.00 | 0.20 | 0.20 | 93 | 1000.2 |
| 20260904063052 | 10 | 341 | 6.4 | 11.3 | 0.00 | 0.20 | 0.20 | 93 | 1000.1 |
| 20260904062532 | 10 | 335 | 6.4 | 11.3 | 0.00 | 0.20 | 0.20 | 93 | 1000.2 |
| 20260904062034 | 10 | 10 | 6.4 | 11.3 | 0.00 | 0.20 | 0.20 | 93 | 1000.2 |
| 20260904061550 | 10 | 338 | 4.8 | 9.7 | 0.00 | 0.20 | 0.20 | 93 | 1000.4 |
| 20260904061033 | 10 | 343 | 4.8 | 9.7 | 0.00 | 0.20 | 0.20 | 93 | 1000.3 |
| 20260904060533 | 10 | 352 | 6.4 | 9.7 | 0.00 | 0.20 | 0.20 | 93 | 1000.4 |
| 20260904060047 | 10 | 22 | 6.4 | 9.7 | 0.00 | 0.20 | 0.20 | 93 | 1000.6 |
| 20260904055532 | 10 | 13 | 3.2 | 8.0 | 0.00 | 0.20 | 0.20 | 93 | 1000.7 |
| 20260904055032 | 10 | 349 | 4.8 | 8.0 | 0.00 | 0.20 | 0.20 | 93 | 1000.4 |
| 20260904054553 | 10 | 333 | 3.2 | 8.0 | 0.00 | 0.20 | 0.20 | 93 | 1000.6 |
| 20260904054032 | 10 | 331 | 3.2 | 9.7 | 0.00 | 0.20 | 0.20 | 93 | 1000.5 |
| 20260904053534 | 10 | 328 | 3.2 | 9.7 | 0.00 | 0.20 | 0.20 | 93 | 1000.5 |
| 20260904053051 | 10 | 38 | 4.8 | 11.3 | 0.00 | 0.20 | 0.20 | 93 | 1000.5 |
| 20260904052531 | 10 | 334 | 4.8 | 11.3 | 0.00 | 0.20 | 0.20 | 93 | 1000.5 |
| 20260904052034 | 10 | 360 | 4.8 | 8.0 | 0.00 | 0.20 | 0.20 | 93 | 1000.7 |
| 20260904051548 | 10 | 5 | 4.8 | 8.0 | 0.00 | 0.20 | 0.20 | 93 | 1000.6 |
| 20260904051030 | 10 | 354 | 4.8 | 8.0 | 0.00 | 0.20 | 0.20 | 93 | 1000.7 |
| 20260904050530 | 10 | 347 | 4.8 | 11.3 | 0.00 | 0.20 | 0.20 | 93 | 1000.7 |
| 20260904050056 | 10 | 347 | 6.4 | 11.3 | 0.00 | 0.20 | 0.20 | 93 | 1000.7 |
| 20260904045532 | 10 | 347 | 6.4 | 11.3 | 0.00 | 0.20 | 0.20 | 93 | 1000.7 |
| 20260904045032 | 10 | 345 | 6.4 | 11.3 | 0.00 | 0.20 | 0.20 | 93 | 1000.6 |
| 20260904044557 | 10 | 10 | 6.4 | 11.3 | 0.00 | 0.20 | 0.20 | 93 | 1000.8 |
| 20260904044034 | 10 | 336 | 4.8 | 11.3 | 0.00 | 0.20 | 0.20 | 93 | 1000.8 |
| 20260904043535 | 10 | 1 | 4.8 | 9.7 | 0.00 | 0.20 | 0.20 | 94 | 1000.8 |
| 20260904043046 | 10 | 9 | 4.8 | 8.0 | 0.00 | 0.20 | 0.20 | 93 | 1000.8 |
| 20260904042530 | 10 | 328 | 1.6 | 4.8 | 0.00 | 0.20 | 0.20 | 93 | 1000.8 |
| 20260904042035 | 10 | 13 | 1.6 | 9.7 | 0.00 | 0.20 | 0.20 | 93 | 1000.8 |
| 20260904041552 | 10 | 11 | 3.2 | 9.7 | 0.00 | 0.20 | 0.20 | 93 | 1000.7 |
| 20260904041033 | 10 | 358 | 4.8 | 9.7 | 0.00 | 0.20 | 0.20 | 94 | 1000.9 |
| 20260904040536 | 10 | 338 | 3.2 | 6.4 | 0.00 | 0.20 | 0.20 | 94 | 1000.9 |
| 20260904040057 | 10 | 338 | 3.2 | 6.4 | 0.00 | 0.20 | 0.20 | 94 | 1000.9 |
| 20260904035534 | 10 | 14 | 3.2 | 6.4 | 0.00 | 0.20 | 0.20 | 94 | 1000.9 |
| 20260904035032 | 10 | 336 | 1.6 | 4.8 | 0.00 | 0.20 | 0.20 | 93 | 1001.0 |
| 20260904034601 | 10 | 330 | 0.0 | 3.2 | 0.00 | 0.20 | 0.20 | 93 | 1000.9 |
| 20260904034033 | 10 | 0 | 0.0 | 1.6 | 0.00 | 0.20 | 0.20 | 93 | 1001.0 |
| 20260904033534 | 10 | 0 | 0.0 | 4.8 | 0.00 | 0.20 | 0.20 | 94 | 1001.1 |
| 20260904033055 | 10 | 0 | 0.0 | 4.8 | 0.00 | 0.20 | 0.20 | 93 | 1001.1 |
| 20260904032530 | 10 | 1 | 0.0 | 8.0 | 0.03 | 0.20 | 0.20 | 94 | 1001.2 |
| 20260904032030 | 10 | 343 | 1.6 | 8.0 | 0.03 | 0.20 | 0.20 | 94 | 1001.2 |
| 20260904031552 | 10 | 359 | 4.8 | 8.0 | 0.03 | 0.20 | 0.20 | 94 | 1001.2 |
| 20260904031033 | 10 | 335 | 4.8 | 8.0 | 0.03 | 0.20 | 0.20 | 94 | 1001.2 |
| 20260904030534 | 10 | 334 | 4.8 | 8.0 | 0.05 | 0.20 | 0.20 | 94 | 1001.3 |
| 20260904030050 | 10 | 342 | 3.2 | 6.4 | 0.05 | 0.20 | 0.20 | 94 | 1001.4 |
| 20260904025536 | 10 | 328 | 3.2 | 6.4 | 0.08 | 0.20 | 0.20 | 94 | 1001.4 |
| 20260904025035 | 10 | 350 | 3.2 | 6.4 | 0.05 | 0.18 | 0.18 | 94 | 1001.5 |
| 20260904024550 | 10 | 359 | 3.2 | 6.4 | 0.08 | 0.18 | 0.18 | 94 | 1001.6 |
| 20260904024033 | 10 | 29 | 3.2 | 6.4 | 0.08 | 0.18 | 0.18 | 94 | 1001.6 |
| 20260904023536 | 10 | 4 | 1.6 | 4.8 | 0.08 | 0.18 | 0.18 | 94 | 1001.6 |
| 20260904023055 | 10 | 333 | 3.2 | 4.8 | 0.08 | 0.18 | 0.18 | 94 | 1001.8 |
| 20260904022532 | 10 | 353 | 3.2 | 6.4 | 0.08 | 0.18 | 0.18 | 94 | 1001.8 |
| 20260904022034 | 10 | 345 | 3.2 | 6.4 | 0.08 | 0.18 | 0.18 | 94 | 1001.9 |
| 20260904021552 | 10 | 330 | 4.8 | 6.4 | 0.08 | 0.18 | 0.18 | 94 | 1001.7 |
| 20260904021031 | 10 | 322 | 3.2 | 6.4 | 0.10 | 0.18 | 0.18 | 94 | 1001.8 |
| 20260904020533 | 10 | 7 | 1.6 | 6.4 | 0.08 | 0.15 | 0.15 | 94 | 1001.8 |
| 20260904020052 | 10 | 6 | 0.0 | 1.6 | 0.08 | 0.15 | 0.15 | 94 | 1001.8 |
| 20260904015530 | 10 | 0 | 0.0 | 1.6 | 0.08 | 0.13 | 0.13 | 93 | 1001.9 |
| 20260904015032 | 10 | 0 | 0.0 | 1.6 | 0.08 | 0.13 | 0.13 | 93 | 1002.1 |
| 20260904014557 | 10 | 0 | 0.0 | 0.0 | 0.08 | 0.10 | 0.10 | 93 | 1001.9 |
| 20260904014031 | 10 | 0 | 0.0 | 1.6 | 0.08 | 0.10 | 0.10 | 93 | 1002.1 |
| 20260904013535 | 10 | 0 | 0.0 | 1.6 | 0.08 | 0.10 | 0.10 | 93 | 1002.1 |
| 20260904013052 | 10 | 0 | 0.0 | 1.6 | 0.05 | 0.08 | 0.08 | 93 | 1002.2 |
| 20260904012536 | 10 | 0 | 0.0 | 0.0 | 0.05 | 0.08 | 0.08 | 93 | 1002.1 |
| 20260904012034 | 10 | 0 | 0.0 | 0.0 | 0.08 | 0.08 | 0.08 | 93 | 1002.1 |
| 20260904011556 | 10 | 0 | 0.0 | 0.0 | 0.08 | 0.08 | 0.08 | 93 | 1002.3 |
| 20260904011035 | 10 | 0 | 0.0 | 0.0 | 0.05 | 0.05 | 0.05 | 92 | 1002.3 |
| 20260904010538 | 10 | 0 | 0.0 | 0.0 | 0.05 | 0.05 | 0.05 | 92 | 1002.4 |
| 20260904010049 | 10 | 0 | 0.0 | 0.0 | 0.05 | 0.05 | 0.05 | 92 | 1002.4 |
| 20260904005533 | 10 | 0 | 0.0 | 6.4 | 0.05 | 0.05 | 0.05 | 92 | 1002.3 |
| 20260904005035 | 10 | 0 | 0.0 | 6.4 | 0.03 | 0.03 | 0.03 | 92 | 1002.3 |
| 20260904004552 | 10 | 342 | 3.2 | 6.4 | 0.03 | 0.03 | 0.03 | 92 | 1002.2 |
| 20260904004034 | 10 | 0 | 0.0 | 8.0 | 0.03 | 0.03 | 0.03 | 92 | 1002.3 |
| 20260904003538 | 10 | 0 | 0.0 | 8.0 | 0.03 | 0.03 | 0.03 | 92 | 1002.4 |
| 20260904003047 | 10 | 0 | 3.2 | 8.0 | 0.03 | 0.03 | 0.03 | 92 | 1002.6 |
| 20260904002531 | 10 | 331 | 0.0 | 6.4 | 0.00 | 0.00 | 0.00 | 92 | 1002.5 |
| 20260904002031 | 10 | 0 | 0.0 | 4.8 | 0.00 | 0.00 | 0.00 | 92 | 1002.6 |
| 20260904001546 | 10 | 0 | 0.0 | 6.4 | 0.00 | 0.00 | 0.00 | 92 | 1002.7 |
| 20260904001034 | 10 | 10 | 3.2 | 6.4 | 0.00 | 0.00 | 0.00 | 92 | 1002.7 |
| 20260904000534 | 10 | 358 | 3.2 | 6.4 | 0.00 | 0.00 | 0.00 | 93 | 1002.8 |
| 20260904000048 | 10 | 347 | 3.2 | 6.4 | 0.00 | 0.00 | 0.00 | 93 | 1002.9 |
| 20260903235534 | 10 | 339 | 3.2 | 6.4 | 0.00 | 0.00 | 0.00 | 93 | 1002.8 |
| 20260903235038 | 10 | 2 | 0.0 | 1.6 | 0.00 | 0.00 | 0.00 | 93 | 1002.9 |
| 20260903234548 | 10 | 0 | 0.0 | 0.0 | 0.00 | 0.00 | 0.00 | 93 | 1002.9 |
| 20260903234031 | 10 | 0 | 0.0 | 0.0 | 0.00 | 0.00 | 0.00 | 93 | 1002.9 |
| 20260903233535 | 10 | 0 | 0.0 | 0.0 | 0.00 | 0.00 | 0.00 | 93 | 1003.0 |
| 20260903233046 | 10 | 0 | 0.0 | 0.0 | 0.00 | 0.00 | 0.00 | 93 | 1003.1 |
| 20260903232530 | 10 | 0 | 0.0 | 0.0 | 0.00 | 0.00 | 0.00 | 92 | 1003.1 |
| 20260903232030 | 10 | 0 | 0.0 | 0.0 | 0.00 | 0.00 | 0.00 | 92 | 1003.0 |
| 20260903231604 | 10 | 0 | 0.0 | 0.0 | 0.00 | 0.00 | 0.00 | 92 | 1003.1 |
| 20260903231034 | 10 | 0 | 0.0 | 0.0 | 0.00 | 0.00 | 0.00 | 92 | 1003.1 |
| 20260903230532 | 10 | 0 | 0.0 | 0.0 | 0.00 | 0.00 | 0.00 | 92 | 1003.2 |
| 20260903230048 | 10 | 0 | 0.0 | 0.0 | 0.00 | 0.00 | 0.00 | 92 | 1003.2 |
| 20260903225534 | 10 | 0 | 0.0 | 0.0 | 0.00 | 0.00 | 0.00 | 92 | 1003.5 |
| 20260903225031 | 10 | 0 | 0.0 | 0.0 | 0.00 | 0.00 | 0.00 | 92 | 1003.3 |
| 20260903224545 | 10 | 0 | 0.0 | 0.0 | 0.00 | 0.00 | 0.00 | 92 | 1003.4 |
| 20260903224034 | 10 | 0 | 0.0 | 0.0 | 0.00 | 0.00 | 0.00 | 92 | 1003.5 |
| 20260903223531 | 10 | 0 | 0.0 | 0.0 | 0.00 | 0.00 | 0.00 | 92 | 1003.4 |
| 20260903223105 | 10 | 0 | 0.0 | 0.0 | 0.00 | 0.00 | 0.00 | 92 | 1003.3 |
| 20260903222530 | 10 | 0 | 0.0 | 0.0 | 0.00 | 0.00 | 0.00 | 91 | 1003.5 |
| 20260903222033 | 10 | 0 | 0.0 | 0.0 | 0.00 | 0.00 | 0.00 | 91 | 1003.5 |
| 20260903221550 | 10 | 0 | 0.0 | 0.0 | 0.00 | 0.00 | 0.00 | 91 | 1003.5 |
| 20260903221033 | 10 | 0 | 0.0 | 0.0 | 0.00 | 0.00 | 0.00 | 91 | 1003.5 |
| 20260903220534 | 10 | 0 | 0.0 | 0.0 | 0.00 | 0.00 | 0.00 | 91 | 1003.5 |
| 20260903215537 | 10 | 0 | 0.0 | 0.0 | 0.00 | 0.00 | 0.00 | 91 | 1003.6 |
| 20260903215030 | 10 | 0 | 0.0 | 0.0 | 0.00 | 0.00 | 0.00 | 91 | 1003.7 |
| 20260903214555 | 10 | 0 | 0.0 | 0.0 | 0.00 | 0.00 | 0.00 | 90 | 1003.7 |
| 20260903214033 | 10 | 0 | 0.0 | 0.0 | 0.00 | 0.00 | 0.00 | 90 | 1003.7 |
| 20260903213532 | 11 | 0 | 0.0 | 0.0 | 0.00 | 0.00 | 0.00 | 90 | 1003.7 |
| 20260903213051 | 10 | 0 | 0.0 | 0.0 | 0.00 | 0.00 | 0.00 | 90 | 1003.7 |
| 20260903212533 | 10 | 0 | 0.0 | 0.0 | 0.00 | 0.00 | 0.00 | 90 | 1003.8 |
| 20260903212035 | 10 | 0 | 0.0 | 0.0 | 0.00 | 0.00 | 0.00 | 89 | 1003.7 |
| 20260903211549 | 10 | 0 | 0.0 | 0.0 | 0.00 | 0.00 | 0.00 | 89 | 1003.8 |
| 20260903211033 | 10 | 0 | 0.0 | 0.0 | 0.00 | 0.00 | 0.00 | 89 | 1003.9 |
| 20260903210538 | 10 | 0 | 0.0 | 0.0 | 0.00 | 0.00 | 0.00 | 88 | 1003.9 |
| 20260903210046 | 11 | 0 | 0.0 | 0.0 | 0.00 | 0.00 | 0.00 | 88 | 1003.8 |
| 20260903205531 | 11 | 0 | 0.0 | 0.0 | 0.00 | 0.00 | 0.00 | 87 | 1003.8 |
| 20260903205031 | 11 | 0 | 0.0 | 0.0 | 0.00 | 0.00 | 0.00 | 87 | 1003.8 |
| 20260903204559 | 11 | 0 | 0.0 | 0.0 | 0.00 | 0.00 | 0.00 | 87 | 1003.9 |
| 20260903204030 | 11 | 0 | 0.0 | 0.0 | 0.00 | 0.00 | 0.00 | 86 | 1004.0 |
| 20260903203533 | 11 | 0 | 0.0 | 0.0 | 0.00 | 0.00 | 0.00 | 86 | 1004.0 |
| 20260903203048 | 11 | 0 | 0.0 | 0.0 | 0.00 | 0.00 | 0.00 | 86 | 1004.0 |
| 20260903202536 | 11 | 0 | 0.0 | 0.0 | 0.00 | 0.00 | 0.00 | 86 | 1004.0 |
| 20260903202034 | 11 | 0 | 0.0 | 0.0 | 0.00 | 0.00 | 0.00 | 85 | 1004.0 |
| 20260903201548 | 11 | 0 | 0.0 | 0.0 | 0.00 | 0.00 | 0.00 | 85 | 1004.0 |
| 20260903201037 | 11 | 0 | 0.0 | 0.0 | 0.00 | 0.00 | 0.00 | 85 | 1004.2 |
| 20260903200531 | 11 | 0 | 0.0 | 0.0 | 0.00 | 0.00 | 0.00 | 85 | 1004.4 |
| 20260903200054 | 11 | 0 | 0.0 | 0.0 | 0.00 | 0.00 | 0.00 | 84 | 1004.5 |
| 20260903195532 | 11 | 0 | 0.0 | 0.0 | 0.00 | 0.00 | 0.00 | 83 | 1004.5 |
| 20260903195034 | 11 | 0 | 0.0 | 0.0 | 0.00 | 0.00 | 0.00 | 83 | 1004.5 |
| 20260903194552 | 11 | 0 | 0.0 | 0.0 | 0.00 | 0.00 | 0.00 | 83 | 1004.5 |
| 20260903194033 | 11 | 0 | 0.0 | 0.0 | 0.00 | 0.00 | 0.00 | 82 | 1004.6 |
| 20260903193531 | 12 | 0 | 0.0 | 1.6 | 0.00 | 0.00 | 0.00 | 82 | 1004.5 |
| 20260903193048 | 12 | 0 | 0.0 | 1.6 | 0.00 | 0.00 | 0.00 | 82 | 1004.5 |
| 20260903192534 | 12 | 0 | 0.0 | 1.6 | 0.00 | 0.00 | 0.00 | 82 | 1004.5 |
| 20260903192033 | 12 | 94 | 0.0 | 1.6 | 0.00 | 0.00 | 0.00 | 82 | 1004.5 |
| 20260903191601 | 12 | 94 | 0.0 | 3.2 | 0.00 | 0.00 | 0.00 | 81 | 1004.5 |
| 20260903191032 | 12 | 0 | 0.0 | 3.2 | 0.00 | 0.00 | 0.00 | 81 | 1004.6 |
| 20260903190532 | 12 | 158 | 0.0 | 3.2 | 0.00 | 0.00 | 0.00 | 81 | 1004.4 |
| 20260903190053 | 12 | 160 | 0.0 | 3.2 | 0.00 | 0.00 | 0.00 | 80 | 1004.5 |
| 20260903185532 | 12 | 0 | 0.0 | 1.6 | 0.00 | 0.00 | 0.00 | 80 | 1004.5 |
| 20260903185032 | 12 | 158 | 0.0 | 1.6 | 0.00 | 0.00 | 0.00 | 79 | 1004.6 |
| 20260903184552 | 12 | 0 | 0.0 | 1.6 | 0.00 | 0.00 | 0.00 | 79 | 1004.7 |
| 20260903184032 | 12 | 0 | 0.0 | 1.6 | 0.00 | 0.00 | 0.00 | 78 | 1004.8 |
| 20260903183534 | 12 | 0 | 0.0 | 1.6 | 0.00 | 0.00 | 0.00 | 78 | 1004.8 |
| 20260903183108 | 12 | 91 | 0.0 | 1.6 | 0.00 | 0.00 | 0.00 | 77 | 1004.8 |
| 20260903182532 | 12 | 0 | 0.0 | 0.0 | 0.00 | 0.00 | 0.00 | 77 | 1004.8 |
| 20260903182033 | 12 | 0 | 0.0 | 0.0 | 0.00 | 0.00 | 0.00 | 76 | 1004.8 |
| 20260903181547 | 12 | 0 | 0.0 | 0.0 | 0.00 | 0.00 | 0.00 | 74 | 1004.9 |
| 20260903181031 | 12 | 0 | 0.0 | 1.6 | 0.00 | 0.00 | 0.00 | 74 | 1004.8 |
| 20260903180532 | 12 | 0 | 0.0 | 3.2 | 0.00 | 0.00 | 0.00 | 73 | 1004.9 |
| 20260903180054 | 12 | 0 | 0.0 | 3.2 | 0.00 | 0.00 | 0.00 | 72 | 1004.9 |
| 20260903175532 | 12 | 0 | 0.0 | 3.2 | 0.00 | 0.00 | 0.00 | 71 | 1005.0 |
| 20260903175034 | 13 | 160 | 0.0 | 3.2 | 0.00 | 0.00 | 0.00 | 70 | 1005.0 |
| 20260903174548 | 13 | 147 | 1.6 | 3.2 | 0.00 | 0.00 | 0.00 | 70 | 1005.0 |
| 20260903174032 | 13 | 176 | 0.0 | 3.2 | 0.00 | 0.00 | 0.00 | 70 | 1004.9 |
| 20260903173531 | 13 | 161 | 0.0 | 1.6 | 0.00 | 0.00 | 0.00 | 69 | 1004.9 |
| 20260903173107 | 13 | 0 | 0.0 | 1.6 | 0.00 | 0.00 | 0.00 | 68 | 1004.9 |
| 20260903172532 | 13 | 0 | 0.0 | 3.2 | 0.00 | 0.00 | 0.00 | 68 | 1004.9 |
| 20260903172031 | 13 | 0 | 0.0 | 6.4 | 0.00 | 0.00 | 0.00 | 66 | 1004.9 |
| 20260903171600 | 13 | 193 | 1.6 | 6.4 | 0.00 | 0.00 | 0.00 | 66 | 1004.9 |
| 20260903171032 | 13 | 161 | 1.6 | 6.4 | 0.00 | 0.00 | 0.00 | 65 | 1004.9 |
| 20260903170533 | 13 | 198 | 0.0 | 3.2 | 0.00 | 0.00 | 0.00 | 64 | 1004.9 |
| 20260903170048 | 13 | 0 | 0.0 | 3.2 | 0.00 | 0.00 | 0.00 | 64 | 1004.9 |
| 20260903165532 | 13 | 186 | 0.0 | 6.4 | 0.00 | 0.00 | 0.00 | 64 | 1005.0 |